www.pogodaiklimat.ru

Погода и климат >> Архив погоды >> Россия >> Якутия >> Делянкир


ПОГОДА в Делянкире

  • Прогноз погоды в Делянкире
  • Монитор погоды в Делянкире

АРХИВ ПОГОДЫ в Делянкире

Время (UTC), дата Ветер
(напр.,м/с)
 
Видим.   Явления Облачность Т
(С)
Тd
(С)
f
(%)
Тe
(С)
Тes
(С)
Комфортность P
(гПа)
Po
(гПа)
Тmin
(С)
Tmax
(С)
R
(мм)
R24
(мм)
S
(см)
09 19.03 С 1 50 км 6/0
[As trans Ci fib]
-23.0 -31.8 44 -26 -26 1023.1 918.0 -22.7
12 19.03 штиль 0 50 км 3/0
[As trans]
-37.8 -42.7 60 -38 -38 опасность
обморожения
1030.2 918.2
15 19.03 штиль 0 50 км ясно -38.8 -49.2 32 -39 -39 опасность
обморожения
1030.3 918.3
18 19.03 штиль 0 50 км ясно -41.3 -46.3 58 -41 -41 опасность
обморожения
1033.6 919.1
21 19.03 штиль 0 50 км ясно -45.2 -49.8 60 -45 -45 опасность
обморожения
1035.0 919.1 -45.2 42
00 20.03 Ю 2 50 км ясно -33.2 -39.3 54 -41 -38 опасность
обморожения
1029.0 919.1 -45.8
03 20.03 С 2 50 км ясно -26.2 -33.6 50 -33 -29 опасность
обморожения
1025.5 919.0
06 20.03 С 2 50 км ясно -22.8 -30.4 50 -29 -28 1024.3 919.2
09 20.03 С 1 50 км ясно -22.4 -31.1 45 -26 -26 1024.1 919.2 -22.0
12 20.03 В 1 50 км ясно -36.9 -42.7 55 -42 -42 опасность
обморожения
1031.3 919.2
15 20.03 штиль 0 50 км ясно -39.4 -44.4 59 -39 -39 опасность
обморожения
1033.1 920.0
18 20.03 штиль 0 50 км ясно -43.3 -47.6 62 -43 -43 опасность
обморожения
1035.7 920.5
21 20.03 штиль 0 50 км 3/0
[As trans]
-45.3 -49.8 60 -45 -45 опасность
обморожения
1036.8 920.5 -45.3 42
00 21.03 штиль 0 50 км 3/0
[As trans Ci fib]
-34.5 -39.6 60 -35 -31 опасность
обморожения
1031.3 920.5
03 21.03 С 1 50 км 3/0
[As trans Ci fib]
-26.5 -33.9 50 -30 -26 1026.9 920.0
06 21.03 С 2 50 км 4/0
[As trans Ci fib]
-21.0 -29.7 45 -27 -26 1024.4 919.7
09 21.03 С 1 50 км 3/0
[]
-21.5 -30.3 45 -25 -25 1008.0 919.3 -20.4
12 21.03 В 1 50 км 3/0
[As trans]
-37.3 -42.3 59 -42 -42 опасность
обморожения
1031.8 919.8
15 21.03 штиль 0 50 км 3/0
[As trans]
-40.3 -45.3 59 -40 -40 опасность
обморожения
1033.4 919.8
18 21.03 штиль 0 50 км 3/0
[As trans]
-42.9 -47.6 60 -43 -43 опасность
обморожения
1035.5 920.5
21 21.03 штиль 0 50 км 4/0
[As trans]
-44.0 -49.0 57 -44 -44 опасность
обморожения
1035.8 920.4 -44.0 42
00 22.03 Ю 2 50 км 8/0
[As trans Ci fib]
-33.0 -38.2 59 -41 -39 опасность
обморожения
1030.1 920.2 -44.5
03 22.03 С 2 50 км 8/0
[As trans Ci sp]
-25.9 -33.4 49 -33 -29 опасность
обморожения
1025.5 919.0
06 22.03 С 2 50 км 8/0
[As trans Ci fib]
-22.0 -29.7 50 -28 -27 1022.2 917.6
09 22.03 С 1 50 км 9/4 1000 м
[Sc As trans]
-22.0 -29.7 50 -25 -25 1022.5 916.3 -21.6
12 22.03 штиль 0 50 км 8/3 1000 м
[Sc As trans]
-28.2 -33.6 60 -28 -28 1023.1 915.9
18 22.03 В 1 20 км слаб. снег 10/0
[As op]
-27.5 -32.2 64 -31 -31 опасность
обморожения
1020.0 913.4
21 22.03 штиль 0 50 км {снег} 4/0
[As trans]
-36.8 -41.1 64 -37 -37 опасность
обморожения
1023.4 912.5 -36.8 0.2 42
00 23.03 штиль 0 50 км {снег} 4/0
[As trans]
-27.0 -31.7 64 -27 -23 1017.4 911.3
03 23.03 С 1 50 км 4/0
[As trans]
-19.4 -25.2 60 -22 -18 1011.9 909.4
06 23.03 С 1 50 км 9/0
[As trans Cs]
-16.4 -22.4 60 -19 -18 1009.2 908.0
09 23.03 С 1 20 км слаб. снег 10/0
[As op]
-16.4 -21.5 65 -19 -19 1008.7 907.5 -15.8 0.2
12 23.03 В 1 20 км слаб. снег 10/0
[As trans Cs]
-21.5 -25.5 70 -25 -25 1010.6 907.4
15 23.03 З 1 20 км слаб. снег 10/0
[As trans Cs]
-26.5 -30.4 70 -30 -30 1013.0 907.5
18 23.03 штиль 0 20 км слаб. снег 9/3 1000 м
[Sc As trans]
-26.7 -30.6 69 -27 -27 1013.2 907.6
21 23.03 Ю 2 50 км {снег} 6/0
[As trans Ci fib]
-29.8 -32.6 76 -37 -37 опасность
обморожения
1023.7 907.3 -29.3 0.4 42
00 24.03 В 1 50 км {снег} 6/0
[Ac As]
-23.1 -28.0 64 -26 -24 1011.6 907.7
03 24.03 В 2 50 км 9/8 1000 м
[Sc As trans]
-18.3 -24.2 60 -24 -23 1009.5 907.5
06 24.03 С 3 50 км 4/0
[Ci fib]
-14.6 -21.5 56 -21 -20 1007.9 907.5
09 24.03 С 1 50 км 6/0
[Ci fib]
-14.3 -22.5 50 -17 -17 1008.1 907.8 -13.4
12 24.03 В 1 50 км 3/0
[As trans]
-28.6 -33.2 64 -33 -33 опасность
обморожения
1015.4 908.9
15 24.03 штиль 0 50 км 4/0
[As trans]
-31.9 -36.5 64 -32 -32 опасность
обморожения
1017.5 909.4
18 24.03 штиль 0 50 км 6/0
[As trans]
-29.5 -31.2 85 -30 -30 1017.8 937.7
21 24.03 штиль 0 50 км 3/0
[As trans]
-37.3 -41.5 65 -37 -37 опасность
обморожения
1021.2 910.4 -37.3 42
00 25.03 штиль 0 50 км 9/0
[Cs]
-27.0 -31.7 64 -27 -23 1017.1 911.0
03 25.03 штиль 0 50 км 9/0
[Cs]
-18.4 -24.3 60 -18 -13 1013.3 911.0
06 25.03 С 1 50 км 6/0
[Cs]
-14.9 -23.0 50 -17 -15 1012.0 911.1
09 25.03 штиль 0 50 км 6/0
[As trans Ci sp]
-14.0 -24.7 40 -14 -14 1011.7 911.2 -13.6
12 25.03 штиль 0 50 км 4/0
[As trans]
-28.0 -32.7 64 -28 -28 1018.2 911.6
15 25.03 штиль 0 50 км ясно -34.5 -38.8 65 -35 -35 опасность
обморожения
1022.3 912.5
18 25.03 штиль 0 50 км ясно -36.5 -40.8 64 -37 -37 опасность
обморожения
1023.6 912.8
21 25.03 В 1 50 км ясно -40.1 -44.1 65 -45 -45 опасность
обморожения
1025.9 913.3 -40.1 42
00 26.03 штиль 0 50 км ясно -26.1 -31.6 60 -26 -21 1019.0 913.1 -40.7
03 26.03 С 3 50 км ясно -18.4 -24.3 60 -26 -21 1014.0 911.6
06 26.03 С 2 50 км ясно -13.1 -22.6 45 -18 -16 1009.4 909.4

 

Местоположение метеостанции Делянкир (Якутия, Россия): широта 63.83 долгота 145.60 высота над уровнем моря 801 м.

В архиве по умолчанию представлена погода в Делянкире за последнюю неделю. Архивные данные за месяц целиком и за предыдущие месяцы, начиная с января 2011 года, Вы можете получить, выбрав интересующий диапазон дат из раскрывающегося списка и нажав кнопку "Ввод!".


*Определитесь, кто Вы:
робот инопланетянин человек

Внимание! Время в таблицах - всемирное. Для получения местного времени необходимо прибавить поправку, которая равна 10 ч.

Смотрите также архив погоды в соседних городах и на ближайших метеорологических станциях:

Погода в Оймяконе (Якутия, Россия) (140 км)
Погода в Усть-Нере (Якутия, Россия) (144 км)
Погода в Сусумане (Магаданская область, Россия) (171 км)
Погода в Юртах (Якутия, Россия) (187 км)
Погода в Агаякане (Якутия, Россия) (201 км)
Погода в Колымской (Магаданская область, Россия) (242 км)
Погода в Ягодной (Магаданская область, Россия) (249 км)
Погода в Совхозе Эльген (Магаданская область, Россия) (275 км)
Погода на Озере Джека Лондона (Магаданская область, Россия) (277 км)
Погода в Восточной (Якутия, Россия) (305 км)

Пояснения к столбцам:

Ветер - указаны скорость ветра в м/с - средняя за 10 мин, порывы в срок и между сроками (в фигурных скобках) и направление, откуда дует ветер: С - северный, СВ - северо-восточный, В - восточный, ЮВ - юго-восточный, Ю - южный, ЮЗ - юго-западный, З - западный, СЗ - северо-западный.
Видимость - горизонтальная дальность видимости в метрах или километрах. При видимости от 1 до 10 км при отсутствии осадков обычно наблюдается дымка, при ухудшении видимости до 1 км и менее - туман. В сухую погоду видимость может ухудшаться дымом, пылью или мглою.
Явления - указаны атмосферные явления, наблюдавшиеся в срок или в последний час перед сроком; фигурными скобками обозначены явления, наблюдавшиеся между сроками (за 1-3 часа до срока); квадратными скобками обозначены град или гололедные отложения с указанием их диаметра в мм.
Облачность - указаны через наклонную черту общая и нижняя облачность в баллах и высота нижней границы облаков в метрах; квадратными скобками обозначены формы облаков: Ci - перистые, Cs - перисто-слоистые, Cc - перисто-кучевые, Ac - высококучевые, As - высокослоистые, Sc - слоисто-кучевые, Ns - слоисто-дождевые, Cu - кучевые, Cb - кучево-дождевые. Подробнее классификацию облаков см. в Атласе облаков (PDF).
T - Температура воздуха - температура, измеренная на высоте 2 м над землей.
Td - Температура точки росы - температура, при понижении до которой содержащийся в воздухе водяной пар достигнет насыщения.
f - Относительная влажность воздуха - влажноcть воздуха, измеренная на высоте 2 м над землей.
Te - Эффективная температура - температура, которую ощущает одетый по сезону человек в тени. Характеристика душности погоды. При расчете учитывается влияние влажности воздуха и скорости ветра на теплоощущения человека.
Tes - Эффективная температура на солнце - температура, которую ощущает человек, с поправкой на солнечный нагрев. Характеристика знойности погоды. Зависит от высоты солнца над горизонтом, облачности и скорости ветра. Ночью, в пасмурную погоду, а также при ветре 12 м/с и более поправка равна нулю.
P - Атмосферное давление - приведенное к уровню моря атмосферное давление.
Po - Атмосферное давление - измеренное на уровне метеостанции атмосферное давление.
Tmin - Минимальная температура - минимум температуры воздуха на высоте 2 м над землей.
Tmax - Максимальная температура - максимум температуры воздуха на высоте 2 м над землей.
R - Количество осадков - Количество выпавших осадков за период времени, мм. При наведении курсора мыши на число - период времени, за который выпало указанное количество осадков.
R24 - Количество осадков - Количество выпавших осадков за 24 часа, мм.
S - Снежный покров - Высота снежного покрова, см. При наведении курсора мыши на число - состояние снежного покрова и степень покрытия местности в баллах.